TimeEDT,TemperatureF,Dew PointF,Humidity,Sea Level PressureIn,VisibilityMPH,Wind Direction,Wind SpeedMPH,Gust SpeedMPH,PrecipitationIn,Events,Conditions,WindDirDegrees,DateUTC
12:15 AM,62.6,62.6,100,29.93,10.0,SSE,3.5,-,N/A,Rain-Thunderstorm,Light Thunderstorms and Rain,160,2013-05-11 04:15:00
12:35 AM,62.6,62.6,100,29.91,10.0,SE,3.5,-,0.01,Rain,Light Rain,140,2013-05-11 04:35:00
12:55 AM,62.6,62.6,100,29.91,10.0,Calm,Calm,-,0.01,,Mostly Cloudy,0,2013-05-11 04:55:00
1:15 AM,62.6,62.6,100,29.90,10.0,Calm,Calm,-,N/A,,Mostly Cloudy,0,2013-05-11 05:15:00
1:35 AM,62.6,62.6,100,29.90,10.0,Calm,Calm,-,N/A,Rain,Light Rain,0,2013-05-11 05:35:00
1:55 AM,62.6,62.6,100,29.90,10.0,Calm,Calm,-,N/A,,Drizzle,0,2013-05-11 05:55:00
2:15 AM,62.6,62.6,100,29.90,10.0,SSE,3.5,-,N/A,,Light Drizzle,150,2013-05-11 06:15:00
2:35 AM,62.6,62.6,100,29.89,10.0,South,4.6,-,N/A,,Overcast,170,2013-05-11 06:35:00
2:55 AM,62.6,62.6,100,29.89,10.0,South,4.6,-,N/A,,Overcast,170,2013-05-11 06:55:00
3:15 AM,62.6,62.6,100,29.88,10.0,South,3.5,-,N/A,Rain,Light Rain,170,2013-05-11 07:15:00
3:35 AM,62.6,62.6,100,29.88,10.0,Calm,Calm,-,N/A,,Drizzle,0,2013-05-11 07:35:00
3:55 AM,62.6,62.6,100,29.88,10.0,Calm,Calm,-,N/A,,Overcast,0,2013-05-11 07:55:00
4:15 AM,62.6,62.6,100,29.88,10.0,SSE,3.5,-,N/A,,Overcast,150,2013-05-11 08:15:00
4:35 AM,62.6,62.6,100,29.87,10.0,SE,4.6,-,N/A,Rain,Rain,140,2013-05-11 08:35:00
4:55 AM,62.6,62.6,100,29.87,10.0,Calm,Calm,-,N/A,,Overcast,0,2013-05-11 08:55:00
5:15 AM,60.8,60.8,100,29.86,10.0,Calm,Calm,-,N/A,,Scattered Clouds,0,2013-05-11 09:15:00
5:35 AM,60.8,60.8,100,29.86,10.0,Calm,Calm,-,N/A,,Scattered Clouds,0,2013-05-11 09:35:00
5:55 AM,60.8,60.8,100,29.86,10.0,Calm,Calm,-,N/A,,Mostly Cloudy,0,2013-05-11 09:55:00
6:15 AM,60.8,60.8,100,29.86,10.0,Calm,Calm,-,0.01,,Overcast,0,2013-05-11 10:15:00
6:35 AM,60.8,60.8,100,29.85,10.0,Calm,Calm,-,0.01,,Overcast,0,2013-05-11 10:35:00
6:55 AM,60.8,60.8,100,29.86,10.0,Calm,Calm,-,0.01,,Overcast,0,2013-05-11 10:55:00
7:15 AM,62.6,62.6,100,29.87,10.0,South,4.6,-,N/A,,Overcast,170,2013-05-11 11:15:00
7:35 AM,62.6,62.6,100,29.86,10.0,South,6.9,-,N/A,,Overcast,170,2013-05-11 11:35:00
7:55 AM,62.6,62.6,100,29.86,10.0,South,6.9,-,N/A,,Overcast,170,2013-05-11 11:55:00
8:15 AM,62.6,62.6,100,29.85,10.0,South,3.5,-,N/A,,Overcast,180,2013-05-11 12:15:00
8:35 AM,62.6,62.6,100,29.85,10.0,South,4.6,-,N/A,,Overcast,170,2013-05-11 12:35:00
8:55 AM,64.4,64.4,100,29.85,10.0,South,3.5,-,N/A,,Scattered Clouds,190,2013-05-11 12:55:00
9:15 AM,64.4,64.4,100,29.86,10.0,South,5.8,-,N/A,,Mostly Cloudy,170,2013-05-11 13:15:00
9:35 AM,64.4,64.4,100,29.85,10.0,South,4.6,-,N/A,,Overcast,170,2013-05-11 13:35:00
9:55 AM,64.4,64.4,100,29.85,10.0,South,5.8,-,N/A,,Overcast,170,2013-05-11 13:55:00
10:15 AM,68.0,66.2,94,29.84,10.0,South,6.9,-,N/A,,Overcast,180,2013-05-11 14:15:00
10:35 AM,68.0,66.2,94,29.84,10.0,South,8.1,-,N/A,,Overcast,180,2013-05-11 14:35:00
10:55 AM,69.8,68.0,94,29.84,10.0,South,8.1,16.1,N/A,,Mostly Cloudy,180,2013-05-11 14:55:00
11:15 AM,71.6,68.0,88,29.83,10.0,SSE,9.2,-,N/A,,Mostly Cloudy,160,2013-05-11 15:15:00
11:35 AM,71.6,66.2,83,29.82,10.0,SSE,8.1,-,N/A,,Mostly Cloudy,160,2013-05-11 15:35:00
11:55 AM,71.6,66.2,83,29.83,10.0,SSE,10.4,-,N/A,,Overcast,160,2013-05-11 15:55:00
12:15 PM,73.4,68.0,83,29.82,10.0,South,8.1,-,N/A,,Mostly Cloudy,190,2013-05-11 16:15:00
12:35 PM,73.4,66.2,78,29.82,10.0,South,11.5,-,N/A,,Scattered Clouds,180,2013-05-11 16:35:00
12:55 PM,75.2,68.0,78,29.81,10.0,South,8.1,-,N/A,,Clear,180,2013-05-11 16:55:00
1:15 PM,77.0,68.0,74,29.81,10.0,South,10.4,16.1,N/A,,Scattered Clouds,170,2013-05-11 17:15:00
1:35 PM,73.4,64.4,73,29.80,10.0,South,8.1,16.1,N/A,,Mostly Cloudy,170,2013-05-11 17:35:00
1:55 PM,75.2,64.4,69,29.81,10.0,South,11.5,16.1,N/A,,Overcast,190,2013-05-11 17:55:00
2:15 PM,77.0,66.2,69,29.80,10.0,South,10.4,19.6,N/A,,Mostly Cloudy,190,2013-05-11 18:15:00
2:35 PM,77.0,64.4,65,29.80,10.0,SSW,12.7,17.3,N/A,,Mostly Cloudy,200,2013-05-11 18:35:00
2:55 PM,77.0,64.4,65,29.79,10.0,South,6.9,-,N/A,,Mostly Cloudy,180,2013-05-11 18:55:00
3:15 PM,78.8,64.4,61,29.78,10.0,South,10.4,16.1,N/A,,Scattered Clouds,190,2013-05-11 19:15:00
3:35 PM,78.8,64.4,61,29.77,10.0,South,11.5,-,N/A,,Clear,190,2013-05-11 19:35:00
3:55 PM,78.8,62.6,57,29.76,10.0,South,6.9,17.3,N/A,,Scattered Clouds,180,2013-05-11 19:55:00
4:15 PM,78.8,62.6,57,29.76,10.0,SSW,12.7,18.4,N/A,,Scattered Clouds,200,2013-05-11 20:15:00
4:35 PM,78.8,62.6,57,29.75,10.0,South,8.1,-,N/A,,Clear,170,2013-05-11 20:35:00
4:55 PM,78.8,62.6,57,29.75,10.0,South,13.8,-,N/A,,Clear,170,2013-05-11 20:55:00
5:15 PM,78.8,62.6,57,29.75,10.0,SSE,8.1,-,N/A,,Scattered Clouds,150,2013-05-11 21:15:00
5:35 PM,77.0,62.6,61,29.75,10.0,South,11.5,17.3,N/A,,Clear,170,2013-05-11 21:35:00
5:55 PM,78.8,62.6,57,29.74,10.0,SSE,11.5,-,N/A,,Clear,160,2013-05-11 21:55:00
6:15 PM,77.0,62.6,61,29.74,10.0,South,11.5,-,N/A,,Clear,170,2013-05-11 22:15:00
6:35 PM,77.0,62.6,61,29.74,10.0,SSE,8.1,18.4,N/A,,Clear,160,2013-05-11 22:35:00
6:55 PM,75.2,62.6,65,29.74,10.0,South,8.1,-,N/A,,Clear,170,2013-05-11 22:55:00
7:15 PM,73.4,62.6,69,29.74,10.0,SSE,8.1,-,N/A,,Clear,160,2013-05-11 23:15:00
7:35 PM,73.4,62.6,69,29.75,10.0,SSE,5.8,-,N/A,,Clear,160,2013-05-11 23:35:00
7:55 PM,71.6,62.6,73,29.77,10.0,West,6.9,-,N/A,,Mostly Cloudy,270,2013-05-11 23:55:00
8:15 PM,71.6,62.6,73,29.77,10.0,Calm,Calm,-,N/A,Rain,Light Rain,0,2013-05-12 00:15:00
8:35 PM,69.8,62.6,78,29.78,10.0,Calm,Calm,-,N/A,,Mostly Cloudy,0,2013-05-12 00:35:00
8:55 PM,68.0,64.4,88,29.77,10.0,Calm,Calm,-,N/A,,Mostly Cloudy,0,2013-05-12 00:55:00
9:15 PM,68.0,62.6,83,29.78,10.0,Calm,Calm,-,N/A,,Mostly Cloudy,0,2013-05-12 01:15:00
9:35 PM,66.2,62.6,88,29.78,10.0,NNE,3.5,-,N/A,,Mostly Cloudy,20,2013-05-12 01:35:00
9:55 PM,64.4,64.4,100,29.78,10.0,Calm,Calm,-,N/A,,Scattered Clouds,0,2013-05-12 01:55:00
10:15 PM,62.6,62.6,100,29.78,10.0,Calm,Calm,-,N/A,,Scattered Clouds,0,2013-05-12 02:15:00
10:35 PM,64.4,64.4,100,29.79,10.0,Calm,Calm,-,N/A,,Mostly Cloudy,0,2013-05-12 02:35:00
10:55 PM,62.6,62.6,100,29.79,10.0,Calm,Calm,-,N/A,,Overcast,0,2013-05-12 02:55:00
11:15 PM,64.4,64.4,100,29.79,10.0,Calm,Calm,-,N/A,,Overcast,0,2013-05-12 03:15:00
11:35 PM,64.4,64.4,100,29.79,10.0,Calm,Calm,-,N/A,,Overcast,0,2013-05-12 03:35:00
11:55 PM,64.4,64.4,100,29.80,10.0,Calm,Calm,-,N/A,,Overcast,0,2013-05-12 03:55:00